TimeMDT,TemperatureF,Dew PointF,Humidity,Sea Level PressureIn,VisibilityMPH,Wind Direction,Wind SpeedMPH,Gust SpeedMPH,PrecipitationIn,Events,Conditions,WindDirDegrees,DateUTC
12:53 AM,43.0,37.9,82,29.81,10.0,SW,10.4,-,N/A,,Scattered Clouds,220,2013-06-20 06:53:00
1:53 AM,41.0,37.0,86,29.80,10.0,SW,9.2,-,N/A,,Clear,230,2013-06-20 07:53:00
2:53 AM,42.1,36.0,79,29.82,10.0,SW,9.2,-,N/A,,Clear,220,2013-06-20 08:53:00
3:53 AM,39.0,35.1,86,29.84,10.0,SSW,9.2,-,N/A,,Clear,210,2013-06-20 09:53:00
4:53 AM,39.0,35.1,86,29.87,10.0,South,4.6,-,N/A,,Mostly Cloudy,190,2013-06-20 10:53:00
5:53 AM,41.0,34.0,76,29.87,10.0,SW,8.1,-,N/A,,Overcast,220,2013-06-20 11:53:00
6:53 AM,42.1,35.1,76,29.87,10.0,SW,6.9,-,N/A,,Mostly Cloudy,230,2013-06-20 12:53:00
7:53 AM,46.0,36.0,68,29.88,10.0,SSW,11.5,-,N/A,,Overcast,200,2013-06-20 13:53:00
8:53 AM,48.9,34.0,56,29.90,10.0,SSW,13.8,-,N/A,,Mostly Cloudy,210,2013-06-20 14:53:00
9:53 AM,50.0,35.1,57,29.92,10.0,SSW,12.7,-,N/A,,Partly Cloudy,200,2013-06-20 15:53:00
10:53 AM,51.1,34.0,52,29.93,10.0,SW,15.0,23.0,N/A,,Partly Cloudy,230,2013-06-20 16:53:00
11:53 AM,53.1,34.0,48,29.93,10.0,SW,15.0,-,N/A,,Mostly Cloudy,220,2013-06-20 17:53:00
12:53 PM,54.0,34.0,47,29.93,10.0,SW,11.5,-,N/A,,Overcast,230,2013-06-20 18:53:00
1:53 PM,53.1,37.9,57,29.95,10.0,SW,15.0,-,0.00,Rain,Light Rain,220,2013-06-20 19:53:00
2:53 PM,55.0,35.1,47,29.92,10.0,WSW,6.9,-,0.00,,Overcast,250,2013-06-20 20:53:00
3:53 PM,59.0,34.0,39,29.91,10.0,WSW,11.5,-,0.00,,Scattered Clouds,240,2013-06-20 21:53:00
4:53 PM,59.0,32.0,36,29.91,10.0,SW,12.7,-,N/A,,Scattered Clouds,230,2013-06-20 22:53:00
5:53 PM,53.1,30.9,43,29.97,10.0,SSW,13.8,31.1,N/A,,Overcast,200,2013-06-20 23:53:00
6:53 PM,53.1,37.0,55,29.96,10.0,SW,5.8,-,N/A,,Overcast,230,2013-06-21 00:53:00
7:53 PM,52.0,37.9,59,29.94,10.0,ESE,6.9,-,N/A,,Scattered Clouds,110,2013-06-21 01:53:00
8:53 PM,51.1,39.0,63,29.95,10.0,Calm,Calm,-,N/A,,Overcast,0,2013-06-21 02:53:00
9:53 PM,45.0,37.0,74,30.01,10.0,West,9.2,-,N/A,,Scattered Clouds,260,2013-06-21 03:53:00
10:53 PM,45.0,37.0,74,30.02,10.0,ESE,5.8,-,N/A,,Overcast,110,2013-06-21 04:53:00
11:53 PM,44.1,36.0,73,30.01,10.0,South,6.9,-,N/A,,Mostly Cloudy,180,2013-06-21 05:53:00